Regional Weather Roundup
Issued by NWS Glasgow, MT

Home | Current Version | Previous Version | Text Only | Print | Product List | Glossary On
Versions: 1 2 3 4 5 6 7 8 9 10 11 12 13 14 15 16 17 18 19 20 21 22 23 24 25 26 27 28 29 30 31 32 33 34 35 36 37 38 39 40 41 42 43 44 45 46 47 48 49 50
000
ASUS45 KGGW 250115
RWRGGW
HOURLY WEATHER ROUNDUP FOR NORTHEAST MONTANA
NATIONAL WEATHER SERVICE GLASGOW MONTANA
700 PM MDT THU JUL 24 2014

NOTE: "FAIR" INDICATES FEW OR NO CLOUDS BELOW 12,000 FEET WITH NO
SIGNIFICANT WEATHER AND/OR OBSTRUCTIONS TO VISISBILITY.

NORTHEAST MONTANA


CITY           SKY/WX    TMP DP  RH WIND       PRES   REMARKS
GLASGOW        MOSUNNY   75  44  33 NW29G38   29.75R
PLENTYWOOD       N/A     65  61  87 NW35G49     N/A
WOLF POINT     CLOUDY    68  55  63 N25G44    29.75R
JORDAN           N/A     77  47  34 NW23G32   29.77S
WINNETT          N/A     79  33  19 W20         N/A
SIDNEY         CLOUDY    81  68  65 SE7       29.61S
GLENDIVE       PTSUNNY   72  68  88 N21G35    29.68R THUNDER
MALTA            N/A     74  44  34 W20         N/A
SCOBEY           N/A     61  51  70 NW20G25   29.81R

FORT PECK REPORTS


CITY           SKY/WX    TMP DP  RH WIND       PRES   REMARKS
FORT PECK        N/A     74  48  39 NW28        N/A
THE PINES        N/A     76  39  26 NW18G38     N/A

SOUTHEAST MONTANA


CITY           SKY/WX    TMP DP  RH WIND       PRES   REMARKS
BILLINGS       SUNNY     85  45  24 N21G31    29.82R
MILES CITY     MOSUNNY   79  55  43 N40G51    29.70R
BAKER          PTSUNNY   82  68  62 E13       29.68F
LIVINGSTON     MOSUNNY   80  34  19 W23G32    29.93R

CENTRAL MONTANA


CITY           SKY/WX    TMP DP  RH WIND       PRES   REMARKS
HAVRE          SUNNY     74  35  24 W22G28    29.84F
LEWISTOWN      FAIR      74  27  17 NW18G29   29.91S
GREAT FALLS    SUNNY     71  27  19 W23G35    29.91F
CUT BANK       SUNNY     62  34  35 W39G54    29.90F
HELENA         SUNNY     74  28  18 W13G25    29.97S
BUTTE          SUNNY     70  26  19 NW14      30.07F
BOZEMAN        SUNNY     74  40  29 N12       29.98S

WESTERN MONTANA


CITY           SKY/WX    TMP DP  RH WIND       PRES   REMARKS
MISSOULA       CLOUDY    70  35  27 NW16      30.10S
KALISPELL      NOT AVBL

NORTH DAKOTA


CITY           SKY/WX    TMP DP  RH WIND       PRES   REMARKS
WILLISTON      PTSUNNY   82  66  58 S8        29.65S
DICKINSON      PTSUNNY   75  68  78 SE15      29.67F
MINOT          MOSUNNY   75  65  70 SE10      29.67F
BISMARCK       SUNNY     78  66  66 SE18G24   29.71F

SOUTHERN SASKATCHEWAN


CITY           SKY/WX    TMP DP  RH WIND       PRES   REMARKS
REGINA         TSTM      63  59  88 W28G39    29.81R VSB 3/4
ESTEVAN        PTSUNNY   73  66  78 SE14      29.69R THUNDER
SWIFT CURRENT  SUNNY     59  54  82 NW8       29.75F



USA.gov is the U.S. government's official web portal to all federal, state and local government web resources and services.